When you browse on this site, cookies collect data to enhance your experience and personalize the content and advertising you see.
Visit our Privacy Policy to learn more. By continuing to use the site, you agree to this use of cookies and data.
  • In Hungary
  • List of Countries
  • For 7 days
  • Water Temperature
  • Weather Map
  • News
  • Weather Widgets
  • user-avatar
    Login

    Hourly Weather Minden

    Today, 7 December, Saturday

    Time Temperature Precipitation Wind Pressure Humidity
    00:00 +6°C° 0.1 mm 9 mps 748 mmHg 85%
    01:00 +6°C° 0 mm 8 mps 748 mmHg 84%
    02:00 +6°C° 0.3 mm 8 mps 748 mmHg 85%
    03:00 +6°C° 0.3 mm 8 mps 748 mmHg 87%
    04:00 +6°C° 0.3 mm 9 mps 748 mmHg 88%
    05:00 +6°C° 0.1 mm 8 mps 749 mmHg 87%
    06:00 +6°C° 0.1 mm 8 mps 750 mmHg 86%
    07:00 +7°C° 0 mm 6 mps 751 mmHg 86%
    08:00 +6°C° 0.1 mm 7 mps 751 mmHg 86%
    09:00 +6°C° 0.1 mm 7 mps 751 mmHg 86%
    10:00 +7°C° 0.1 mm 8 mps 752 mmHg 87%
    11:00 +7°C° 0.1 mm 8 mps 752 mmHg 85%
    12:00 +7°C° 0.1 mm 8 mps 753 mmHg 83%
    13:00 +7°C° 0.1 mm 8 mps 753 mmHg 82%
    14:00 +8°C° 0 mm 7 mps 753 mmHg 82%
    15:00 +8°C° 0 mm 7 mps 753 mmHg 83%
    16:00 +7°C° 0 mm 6 mps 754 mmHg 84%
    17:00 +7°C° 0 mm 6 mps 754 mmHg 85%
    18:00 +7°C° 0 mm 6 mps 754 mmHg 85%
    19:00 +7°C° 0 mm 6 mps 755 mmHg 85%
    20:00 +7°C° 0 mm 6 mps 755 mmHg 85%
    21:00 +7°C° 0 mm 6 mps 754 mmHg 85%
    22:00 +7°C° 0 mm 6 mps 754 mmHg 84%
    23:00 +5°C° 0 mm 6 mps 754 mmHg 85%

    Tomorrow, 8 December, Sunday

    Time Temperature Precipitation Wind Pressure Humidity
    00:00 +5°C° 0 mm 6 mps 754 mmHg 85%
    01:00 +5°C° 0 mm 6 mps 754 mmHg 85%
    02:00 +5°C° 0 mm 7 mps 753 mmHg 84%
    03:00 +5°C° 0 mm 7 mps 752 mmHg 83%
    04:00 +5°C° 0 mm 8 mps 751 mmHg 82%
    05:00 +5°C° 0 mm 8 mps 750 mmHg 82%
    06:00 +6°C° 0 mm 8 mps 749 mmHg 82%
    07:00 +6°C° 0 mm 9 mps 748 mmHg 81%
    08:00 +6°C° 0 mm 9 mps 747 mmHg 80%
    09:00 +7°C° 0 mm 9 mps 746 mmHg 80%
    10:00 +7°C° 0 mm 10 mps 746 mmHg 79%
    11:00 +8°C° 0.4 mm 10 mps 745 mmHg 81%
    12:00 +8°C° 0.4 mm 10 mps 745 mmHg 83%
    13:00 +8°C° 0.4 mm 10 mps 744 mmHg 85%
    14:00 +8°C° 0.2 mm 9 mps 745 mmHg 82%
    15:00 +9°C° 0.2 mm 8 mps 745 mmHg 78%
    16:00 +8°C° 0.2 mm 7 mps 745 mmHg 75%
    17:00 +8°C° 0 mm 7 mps 745 mmHg 76%
    18:00 +7°C° 0 mm 6 mps 745 mmHg 78%
    19:00 +5°C° 0 mm 6 mps 745 mmHg 80%
    20:00 +5°C° 0.1 mm 7 mps 744 mmHg 80%
    21:00 +5°C° 0.1 mm 7 mps 744 mmHg 80%
    22:00 +5°C° 0.1 mm 7 mps 743 mmHg 80%
    23:00 +5°C° 0.2 mm 8 mps 743 mmHg 80%

    Day after tomorrow, 9 December, Monday

    Time Temperature Precipitation Wind Pressure Humidity
    00:00 +5°C° 0.2 mm 8 mps 743 mmHg 80%
    01:00 +5°C° 0.2 mm 8 mps 743 mmHg 79%
    02:00 +5°C° 0.1 mm 8 mps 742 mmHg 78%
    03:00 +4°C° 0.1 mm 8 mps 741 mmHg 77%
    04:00 +4°C° 0.1 mm 8 mps 741 mmHg 76%
    05:00 +3°C° 0.1 mm 9 mps 740 mmHg 79%
    06:00 +3°C° 0.1 mm 9 mps 740 mmHg 81%
    07:00 +3°C° 0.1 mm 10 mps 739 mmHg 83%
    08:00 +3°C° 0.2 mm 10 mps 739 mmHg 83%
    09:00 +3°C° 0.2 mm 10 mps 739 mmHg 83%
    10:00 +3°C° 0.2 mm 10 mps 739 mmHg 83%
    11:00 +3°C° 0.2 mm 10 mps 739 mmHg 82%
    12:00 +3°C° 0.2 mm 10 mps 739 mmHg 81%
    13:00 +3°C° 0.2 mm 11 mps 738 mmHg 80%
    14:00 +3°C° 0.7 mm 11 mps 739 mmHg 81%
    15:00 +4°C° 0.7 mm 11 mps 739 mmHg 82%
    16:00 +4°C° 0.7 mm 11 mps 739 mmHg 83%
    17:00 +5°C° 0.5 mm 10 mps 741 mmHg 82%
    18:00 +5°C° 0.5 mm 10 mps 743 mmHg 81%
    19:00 +5°C° 0.5 mm 9 mps 745 mmHg 80%
    20:00 +3°C° 0.3 mm 9 mps 747 mmHg 77%
    21:00 +4°C° 0.3 mm 8 mps 749 mmHg 73%
    22:00 +2°C° 0.3 mm 8 mps 751 mmHg 69%
    23:00 +2°C° 0 mm 8 mps 753 mmHg 70%

    10 December, Tuesday

    Time Temperature Precipitation Wind Pressure Humidity
    00:00 +2°C° 0 mm 7 mps 754 mmHg 71%
    01:00 +2°C° 0 mm 7 mps 755 mmHg 72%
    02:00 +2°C° 0 mm 7 mps 756 mmHg 73%
    03:00 +2°C° 0 mm 7 mps 757 mmHg 75%
    04:00 +2°C° 0 mm 6 mps 758 mmHg 76%
    05:00 +2°C° 0 mm 6 mps 759 mmHg 77%
    06:00 +1°C° 0 mm 6 mps 760 mmHg 78%
    07:00 +1°C° 0 mm 5 mps 761 mmHg 79%
    08:00 +1°C° 0 mm 5 mps 761 mmHg 79%
    09:00 +1°C° 0 mm 5 mps 762 mmHg 79%
    10:00 +1°C° 0 mm 4 mps 763 mmHg 79%
    11:00 +3°C° 0 mm 4 mps 763 mmHg 77%
    12:00 +3°C° 0 mm 4 mps 763 mmHg 75%
    13:00 +4°C° 0 mm 4 mps 763 mmHg 73%
    14:00 +3°C° 0 mm 4 mps 762 mmHg 76%
    15:00 +3°C° 0 mm 4 mps 762 mmHg 79%
    16:00 +3°C° 0 mm 3 mps 761 mmHg 81%
    17:00 +1°C° 0 mm 4 mps 761 mmHg 80%
    18:00 +1°C° 0 mm 5 mps 760 mmHg 79%
    19:00 +1°C° 0 mm 6 mps 760 mmHg 77%
    20:00 +1°C° 0 mm 6 mps 759 mmHg 75%
    21:00 +1°C° 0 mm 6 mps 758 mmHg 72%
    22:00 0°C° 0 mm 7 mps 758 mmHg 70%
    23:00 +2°C° 0 mm 7 mps 757 mmHg 66%

    11 December, Wednesday

    Time Temperature Precipitation Wind Pressure Humidity
    00:00 +2°C° 0 mm 7 mps 756 mmHg 62%
    01:00 +2°C° 0 mm 7 mps 755 mmHg 59%
    02:00 +1°C° 0.5 mm 8 mps 754 mmHg 64%
    03:00 +1°C° 0.5 mm 8 mps 754 mmHg 70%
    04:00 +1°C° 0.5 mm 9 mps 753 mmHg 76%
    05:00 +2°C° 0.3 mm 8 mps 753 mmHg 79%
    06:00 +3°C° 0.3 mm 7 mps 753 mmHg 82%
    07:00 +3°C° 0.3 mm 7 mps 753 mmHg 85%
    08:00 +3°C° 0.1 mm 6 mps 753 mmHg 86%
    09:00 +3°C° 0.1 mm 5 mps 754 mmHg 88%
    10:00 +4°C° 0.1 mm 4 mps 754 mmHg 90%
    11:00 +5°C° 0 mm 4 mps 754 mmHg 87%
    12:00 +5°C° 0 mm 4 mps 753 mmHg 85%
    13:00 +6°C° 0 mm 4 mps 753 mmHg 82%
    14:00 +5°C° 0 mm 3 mps 753 mmHg 85%
    15:00 +4°C° 0 mm 3 mps 753 mmHg 87%
    16:00 +5°C° 0 mm 2 mps 753 mmHg 89%
    17:00 +3°C° 0 mm 3 mps 753 mmHg 90%
    18:00 +3°C° 0 mm 3 mps 753 mmHg 91%
    19:00 +2°C° 0 mm 3 mps 752 mmHg 92%
    20:00 +2°C° 0 mm 3 mps 752 mmHg 92%
    21:00 +2°C° 0 mm 3 mps 752 mmHg 91%
    22:00 +1°C° 0 mm 3 mps 752 mmHg 91%
    23:00 +1°C° 0 mm 3 mps 751 mmHg 90%

    12 December, Thursday

    Time Temperature Precipitation Wind Pressure Humidity
    00:00 0°C° 0 mm 4 mps 751 mmHg 90%
    01:00 0°C° 0 mm 4 mps 750 mmHg 90%
    02:00 0°C° 0 mm 4 mps 750 mmHg 90%
    03:00 0°C° 0 mm 4 mps 750 mmHg 90%
    04:00 0°C° 0 mm 4 mps 749 mmHg 90%
    05:00 +1°C° 0.1 mm 4 mps 750 mmHg 91%
    06:00 +1°C° 0.1 mm 4 mps 750 mmHg 91%
    07:00 +3°C° 0.1 mm 4 mps 750 mmHg 92%
    08:00 +2°C° 0 mm 5 mps 750 mmHg 90%
    09:00 +1°C° 0 mm 5 mps 750 mmHg 89%
    10:00 +1°C° 0 mm 5 mps 751 mmHg 87%
    11:00 +2°C° 0 mm 5 mps 751 mmHg 82%
    12:00 +2°C° 0 mm 6 mps 750 mmHg 78%
    13:00 +3°C° 0 mm 6 mps 750 mmHg 73%
    14:00 +3°C° 0 mm 6 mps 750 mmHg 74%
    15:00 +2°C° 0 mm 6 mps 749 mmHg 76%
    16:00 +2°C° 0 mm 5 mps 749 mmHg 77%
    17:00 +2°C° 0 mm 6 mps 748 mmHg 77%
    18:00 +2°C° 0 mm 6 mps 748 mmHg 78%
    19:00 +2°C° 0 mm 7 mps 747 mmHg 79%
    20:00 +2°C° 0 mm 7 mps 747 mmHg 80%
    21:00 +3°C° 0 mm 7 mps 746 mmHg 82%
    22:00 +3°C° 0 mm 7 mps 745 mmHg 83%
    23:00 +4°C° 0.1 mm 7 mps 743 mmHg 83%
    Show more